Location: Alladorf
(49.9620°N, 11.3790°E)
Time: 21:30:10
(UTC+00:00)

Cosmos 1689 Rocket - Pass Details

Date: 29 November 2020
Orbit: 356 x 370 km, 97.5° (Epoch: 25 January)

Event Time Altitude Azimuth Distance (km) Brightness Sun altitude
Rises 05:14:36 0° 195° (SSW) 2,173 5.9 -14.5°
Reaches altitude 10° 05:16:49 10° 213° (SSW) 1,337 4.6 -14.2°
Enters shadow 05:17:52 16° 232° (SW) 1,033 3.9 -14.0°
